This is the latest recevied weather packets stored in our database for station/object KI4HRG. If no packets are shown the sender has not sent any weather packets the latest 10 day(s).
| Time | Temp. | Humidity | Pressure | Rain* | Wind** | Luminosity | Snow |
|---|---|---|---|---|---|---|---|
| 1777758118 | 20° C | 39% | 1015 hPa | 0 mm | - | 359 W/m² | - |
| 1777757815 | 20° C | 38% | 1015 hPa | 0 mm | - | 154 W/m² | - |
| 1777757512 | 20.56° C | 36% | 1015.1 hPa | 0 mm | - | 92 W/m² | - |
| 1777757211 | 21.11° C | 38% | 1014.9 hPa | 0 mm | - | 406 W/m² | - |
| 1777756909 | 20.56° C | 37% | 1014.8 hPa | 0 mm | - | 399 W/m² | - |
| 1777756604 | 20.56° C | 37% | 1014.8 hPa | 0 mm | - | 440 W/m² | - |
| 1777756301 | 21.11° C | 37% | 1014.8 hPa | 0 mm | - | 440 W/m² | - |
| 1777755999 | 20.56° C | 37% | 1014.9 hPa | 0 mm | - | 458 W/m² | - |
| 1777755696 | 21.11° C | 37% | 1015 hPa | 0 mm | - | 458 W/m² | - |
| 1777755392 | 20.56° C | 37% | 1015.2 hPa | 0 mm | - | 471 W/m² | - |
| 1777755089 | 20.56° C | 36% | 1015 hPa | 0 mm | - | 486 W/m² | - |
| 1777754786 | 20.56° C | 36% | 1015.3 hPa | 0 mm | - | 521 W/m² | - |
| 1777754484 | 21.11° C | 36% | 1014.9 hPa | 0 mm | - | 533 W/m² | - |
| 1777754181 | 20.56° C | 36% | 1015.1 hPa | 0 mm | - | 563 W/m² | - |
| 1777753878 | 21.11° C | 35% | 1015.1 hPa | 0 mm | - | 598 W/m² | - |
| 1777753574 | 21.11° C | 36% | 1015.1 hPa | 0 mm | - | 565 W/m² | - |
| 1777753272 | 20.56° C | 35% | 1015.1 hPa | 0 mm | - | 590 W/m² | - |
| 1777752968 | 20° C | 35% | 1015.1 hPa | 0 mm | - | 612 W/m² | - |
| 1777752665 | 20.56° C | 34% | 1015.5 hPa | 0 mm | - | 589 W/m² | - |
| 1777752360 | 21.11° C | 33% | 1015.2 hPa | 0 mm | - | 560 W/m² | - |
| 1777752058 | 21.11° C | 34% | 1015.4 hPa | 0 mm | - | 594 W/m² | - |
| 1777751756 | 20.56° C | 34% | 1015.2 hPa | 0 mm | - | 602 W/m² | - |
| 1777751451 | 20° C | 34% | 1015.3 hPa | 0 mm | - | 629 W/m² | - |
| 1777751148 | 20.56° C | 36% | 1015.2 hPa | 0 mm | - | 623 W/m² | - |
| 1777750844 | 20.56° C | 35% | 1015.3 hPa | 0 mm | - | 606 W/m² | - |
* Rain latest hour (hover to see other rain measurements)
** Current wind speed in m/s (hover to see current wind gust speed)